Le nostre stazioni meteo in Italia

Pubblicità
Il mio iltempo24.it
Kinbrace, Gran Bretagna (99016): Temperatura & dewpoint: 13.04.2019 16:00:00 - 19.04.2019 16:00:00 (BST)Kinbrace, Gran Bretagna (99016): velocità del vento & gusts: 13.04.2019 16:00:00 - 19.04.2019 16:00:00 (BST)Kinbrace, Gran Bretagna (99016): direzione del vento: 13.04.2019 16:00:00 - 19.04.2019 16:00:00 (BST)Kinbrace, Gran Bretagna (99016): precipitazioni: 13.04.2019 16:00:00 - 19.04.2019 16:00:00 (BST)
Data & Tempo tt [°C] td [°C] ff [km/h] ff [kn] fx [km/h] fx [kn] dd rr [mm]
19.04.2019 16:00:00 20,2 6,9 24 13 - - S 0,0
19.04.2019 15:00:00 19,6 7,1 22 12 - - S 0,0
19.04.2019 14:00:00 18,8 6,9 28 15 - - S 0,0
19.04.2019 13:00:00 17,7 5,7 26 14 - - SE 0,0
19.04.2019 12:00:00 16,2 4,9 29 16 - - SE 0,0
19.04.2019 11:00:00 16,2 4,9 22 12 - - SE 0,0
19.04.2019 10:00:00 14,3 4,7 13 7 - - SSE 0,0
19.04.2019 09:00:00 13,3 5,0 15 8 - - S 0,0
19.04.2019 08:00:00 11,5 4,3 22 12 - - SE 0,0
19.04.2019 07:00:00 9,7 3,7 18 10 - - ESE 0,0
19.04.2019 06:00:00 7,9 3,5 9 5 - - S 0,0
19.04.2019 05:00:00 9,5 3,0 18 10 - - ESE 0,0
19.04.2019 04:00:00 8,2 2,6 11 6 - - SE 0,0
19.04.2019 03:00:00 9,8 3,6 18 10 - - ESE 0,0
19.04.2019 02:00:00 9,9 3,7 24 13 - - ESE 0,0
19.04.2019 01:00:00 9,8 3,6 21 11 - - ESE 0,0
19.04.2019 00:00:00 10,8 3,3 24 13 - - SE 0,0
18.04.2019 23:00:00 10,9 4,2 21 11 - - SE 0,0
18.04.2019 22:00:00 10,8 5,1 21 11 - - ESE 0,0
18.04.2019 21:00:00 12,1 5,2 31 17 46 25 ESE 0,0
18.04.2019 20:00:00 12,9 4,7 37 20 48 26 SE 0,0
18.04.2019 19:00:00 14,1 4,4 35 19 46 25 SE 0,0
18.04.2019 18:00:00 14,8 4,4 29 16 - - SE 0,0
18.04.2019 17:00:00 15,4 4,7 28 15 46 25 SE 0,0
18.04.2019 16:00:00 14,7 4,6 34 18 50 27 SE 0,0
18.04.2019 15:00:00 16,0 5,4 29 16 46 25 SE 0,0
18.04.2019 14:00:00 15,1 4,1 35 19 50 27 SE 0,0
18.04.2019 13:00:00 14,7 4,5 29 16 - - SE 0,0
18.04.2019 12:00:00 14,4 5,1 26 14 - - SSE 0,0
18.04.2019 11:00:00 15,0 5,4 26 14 - - SE 0,0
18.04.2019 10:00:00 13,3 4,2 21 11 - - SE 0,0
18.04.2019 09:00:00 11,0 3,8 11 6 - - SSE 0,0
18.04.2019 08:00:00 7,3 3,6 15 8 - - S 0,0
18.04.2019 07:00:00 4,2 1,9 9 5 - - S 0,0
18.04.2019 06:00:00 3,9 1,7 9 5 - - SSO 0,0
18.04.2019 05:00:00 5,2 1,9 13 7 - - S 0,0
18.04.2019 04:00:00 3,3 1,0 11 6 - - SSO 0,0
18.04.2019 03:00:00 3,8 0,6 8 4 - - S 0,0
18.04.2019 02:00:00 5,9 2,2 11 6 - - SE 0,0
18.04.2019 01:00:00 4,5 1,0 9 5 - - SSE 0,0
18.04.2019 00:00:00 7,1 2,3 22 12 - - ESE 0,0
17.04.2019 23:00:00 7,7 2,2 18 10 - - ESE 0,0
17.04.2019 22:00:00 7,7 2,2 22 12 - - ESE 0,0
17.04.2019 21:00:00 8,3 2,2 26 14 - - ESE 0,0
17.04.2019 20:00:00 8,8 2,4 18 10 - - SSE 0,0
17.04.2019 19:00:00 10,2 1,9 22 12 - - ESE 0,0
17.04.2019 18:00:00 11,6 2,0 24 13 48 26 ESE 0,0
17.04.2019 17:00:00 12,8 2,8 34 18 - - SE 0,0
17.04.2019 16:00:00 11,5 2,7 28 15 - - SE 0,0
17.04.2019 15:00:00 11,5 3,4 26 14 - - SE 0,0
17.04.2019 14:00:00 11,2 3,6 26 14 - - SE 0,0
17.04.2019 13:00:00 10,1 3,4 34 18 48 26 SE 0,0
17.04.2019 12:00:00 8,6 3,1 39 21 48 26 SE 0,0
17.04.2019 11:00:00 8,0 3,2 41 22 54 29 SSE 0,0
17.04.2019 10:00:00 7,3 3,6 42 23 54 29 SE 0,0
17.04.2019 09:00:00 6,0 2,9 22 12 - - SE 0,0
17.04.2019 08:00:00 5,5 2,8 24 13 - - SE 0,0
17.04.2019 07:00:00 5,1 2,8 29 16 46 25 SE 0,0
17.04.2019 06:00:00 5,1 2,7 28 15 - - SE 0,0
17.04.2019 05:00:00 5,0 2,8 28 15 - - SE 0,0
17.04.2019 04:00:00 5,4 2,4 26 14 - - SE 0,0
17.04.2019 03:00:00 5,5 2,4 31 17 48 26 SE 0,0
17.04.2019 02:00:00 5,6 2,6 34 18 - - SE 0,0
17.04.2019 01:00:00 5,7 2,6 35 19 52 28 SE 0,0
17.04.2019 00:00:00 5,7 2,7 34 18 50 27 SE 0,0
16.04.2019 23:00:00 5,8 2,9 34 18 48 26 SE 0,0
16.04.2019 22:00:00 6,1 2,9 35 19 48 26 SE 0,0
16.04.2019 21:00:00 6,3 3,2 34 18 54 29 SE 0,0
16.04.2019 20:00:00 6,5 3,3 41 22 55 30 SE 0,0
16.04.2019 19:00:00 7,2 3,7 39 21 54 29 SE 0,0
16.04.2019 18:00:00 7,7 3,9 35 19 48 26 SE 0,0
16.04.2019 17:00:00 8,3 4,2 31 17 50 27 SE 0,0
16.04.2019 16:00:00 8,2 4,1 35 19 - - SE 0,0
16.04.2019 15:00:00 8,7 4,4 28 15 55 30 SE 0,0
16.04.2019 14:00:00 8,5 4,8 34 18 52 28 SE 0,0
16.04.2019 13:00:00 8,2 4,6 34 18 50 27 SE 0,0
16.04.2019 12:00:00 7,7 4,5 29 16 52 28 SE 0,0
16.04.2019 11:00:00 7,3 4,1 35 19 50 27 SE 0,0
16.04.2019 10:00:00 7,0 4,3 29 16 - - SE 0,0
16.04.2019 09:00:00 6,7 4,3 28 15 - - SE 0,0
16.04.2019 08:00:00 6,6 4,3 28 15 - - SE 0,0
16.04.2019 07:00:00 6,4 3,9 29 16 - - SE 0,0
16.04.2019 06:00:00 6,3 3,7 29 16 - - SE 0,0
16.04.2019 05:00:00 6,3 3,5 34 18 46 25 SE 0,0
16.04.2019 04:00:00 6,2 3,5 35 19 54 29 SE 0,0
16.04.2019 03:00:00 6,3 3,5 37 20 57 31 SE 0,0
16.04.2019 02:00:00 6,4 3,6 41 22 61 33 SE 0,0
16.04.2019 01:00:00 6,5 3,8 42 23 65 35 SE 0,0
16.04.2019 00:00:00 6,5 3,9 42 23 63 34 SE 0,0
15.04.2019 23:00:00 6,5 4,0 42 23 67 36 SE 0,0
15.04.2019 22:00:00 6,6 4,1 39 21 65 35 SE 0,0
15.04.2019 21:00:00 6,7 4,2 39 21 55 30 SE 0,0
15.04.2019 20:00:00 6,8 4,0 39 21 57 31 SE 0,0
15.04.2019 19:00:00 7,0 4,3 37 20 57 31 SE 0,0
15.04.2019 18:00:00 7,1 4,3 42 23 68 37 SE 0,0
15.04.2019 17:00:00 8,5 3,7 46 25 72 39 SE 0,0
15.04.2019 16:00:00 9,1 2,6 50 27 76 41 SE 0,0
15.04.2019 15:00:00 9,5 2,2 52 28 68 37 SE 0,0
15.04.2019 14:00:00 8,0 1,0 44 24 63 34 SSE 0,0
15.04.2019 13:00:00 7,5 0,4 41 22 61 33 SE 0,0
15.04.2019 12:00:00 7,2 0,7 39 21 61 33 SE 0,0
15.04.2019 11:00:00 6,5 1,2 39 21 55 30 SE 0,0
15.04.2019 10:00:00 6,4 0,6 39 21 55 30 SSE 0,0
15.04.2019 09:00:00 5,1 1,3 35 19 50 27 SSE 0,0
15.04.2019 08:00:00 4,6 1,7 29 16 48 26 SE 0,0
15.04.2019 07:00:00 4,3 2,2 31 17 46 25 SE 0,0
15.04.2019 06:00:00 4,4 0,8 26 14 48 26 SE 0,0
15.04.2019 05:00:00 4,6 -0,1 31 17 46 25 SSE 0,0
15.04.2019 04:00:00 4,2 0,2 22 12 - - SSE 0,0
15.04.2019 03:00:00 3,7 -0,3 24 13 - - SE 0,0
15.04.2019 02:00:00 4,3 0,9 28 15 - - SE 0,0
15.04.2019 01:00:00 5,0 1,4 26 14 - - SSE 0,0
15.04.2019 00:00:00 4,4 -0,1 22 12 50 27 SSE 0,0
14.04.2019 23:00:00 4,5 -0,2 35 19 48 26 SE 0,0
14.04.2019 22:00:00 4,6 0,0 37 20 50 27 SE 0,0
14.04.2019 21:00:00 5,1 -0,2 35 19 46 25 SE 0,0
14.04.2019 20:00:00 5,8 0,7 35 19 46 25 SE 0,0
14.04.2019 19:00:00 6,2 0,7 34 18 48 26 SE 0,0
14.04.2019 18:00:00 7,6 1,0 34 18 50 27 SE 0,0
14.04.2019 17:00:00 7,5 0,2 35 19 59 32 SE 0,0
14.04.2019 16:00:00 8,4 0,0 37 20 54 29 SE 0,0
14.04.2019 15:00:00 8,3 0,2 39 21 55 30 SE 0,0
14.04.2019 14:00:00 8,3 -0,4 39 21 52 28 SE 0,0
14.04.2019 13:00:00 7,7 -0,5 37 20 61 33 SE 0,0
14.04.2019 12:00:00 7,7 0,1 37 20 55 30 SE 0,0
14.04.2019 11:00:00 6,7 -1,2 41 22 54 29 SE 0,0
14.04.2019 10:00:00 5,2 -1,3 35 19 52 28 SE 0,0
14.04.2019 09:00:00 4,9 -1,8 37 20 54 29 SE 0,0
14.04.2019 08:00:00 4,8 -0,8 37 20 50 27 SE 0,0
14.04.2019 07:00:00 3,9 -1,1 35 19 54 29 SE 0,0
14.04.2019 06:00:00 3,3 -1,4 37 20 52 28 SE 0,0
14.04.2019 05:00:00 3,3 -1,3 34 18 46 25 SE 0,0
14.04.2019 04:00:00 3,2 -1,3 26 14 - - SE 0,0
14.04.2019 03:00:00 3,1 -1,1 26 14 46 25 SE 0,0
14.04.2019 02:00:00 3,3 -1,1 34 18 48 26 SE 0,0
14.04.2019 01:00:00 3,3 -0,9 35 19 50 27 SE 0,0
14.04.2019 00:00:00 3,3 -1,0 31 17 - - SE 0,0
13.04.2019 23:00:00 3,6 -1,4 35 19 50 27 SE 0,0
13.04.2019 22:00:00 3,5 -1,6 29 16 - - SE 0,0
13.04.2019 21:00:00 4,4 -0,6 37 20 52 28 SE 0,0
13.04.2019 20:00:00 5,1 -1,0 37 20 55 30 SE 0,0
13.04.2019 19:00:00 6,5 -1,1 44 24 63 34 SE 0,0
13.04.2019 18:00:00 7,4 -0,9 46 25 63 34 SE 0,0
13.04.2019 17:00:00 8,2 -1,2 42 23 59 32 SE 0,0
13.04.2019 16:00:00 8,6 -1,1 42 23 65 35 SSE 0,0

tt = Temperatura
td = dewpoint
ff = velocità del vento
fx = gusts
dd = direzione del vento
rr = precipitazioni

Stazioni seguenti

WeatherPro
AMSI
MeteoEarth